Time,TemperatureF,DewpointF,PressureIn,WindDirection,WindDirectionDegrees,WindSpeedMPH,WindSpeedGustMPH,Humidity,HourlyPrecipIn,Conditions,Clouds,dailyrainin,SolarRadiationWatts/m^2,SoftwareType,DateUTC
2013-12-12 00:01:00,5.4,1.0,30.35,North,0,0.0,0.0,82,0.00,,,0.00,0.0,meteobridge,2013-12-12 05:01:00,
2013-12-12 00:03:00,5.2,0.9,30.35,North,0,0.0,0.0,82,0.00,,,0.00,0.0,meteobridge,2013-12-12 05:03:00,
2013-12-12 00:04:00,5.2,0.9,30.35,North,0,0.0,0.0,82,0.00,,,0.00,0.0,meteobridge,2013-12-12 05:04:00,
2013-12-12 00:09:00,5.2,0.9,30.35,North,0,0.0,0.0,82,0.00,,,0.00,0.0,meteobridge,2013-12-12 05:09:00,
2013-12-12 00:14:00,5.2,1.2,30.35,North,0,0.0,0.0,83,0.00,,,0.00,0.0,meteobridge,2013-12-12 05:14:00,
2013-12-12 00:19:00,5.4,1.4,30.34,North,0,0.0,0.0,83,0.00,,,0.00,0.0,meteobridge,2013-12-12 05:19:00,
2013-12-12 00:24:00,5.4,1.0,30.34,North,0,0.0,0.0,82,0.00,,,0.00,0.0,meteobridge,2013-12-12 05:24:00,
2013-12-12 00:29:00,5.2,0.9,30.34,North,0,0.0,0.0,82,0.00,,,0.00,0.0,meteobridge,2013-12-12 05:29:00,
2013-12-12 00:34:00,5.0,0.7,30.34,North,0,0.0,0.0,82,0.00,,,0.00,0.0,meteobridge,2013-12-12 05:34:00,
2013-12-12 00:39:00,4.8,0.5,30.34,North,0,0.0,0.0,82,0.00,,,0.00,0.0,meteobridge,2013-12-12 05:39:00,
2013-12-12 00:44:00,4.6,0.7,30.34,North,0,0.0,0.0,83,0.00,,,0.00,0.0,meteobridge,2013-12-12 05:44:00,
2013-12-12 00:50:00,4.5,0.5,30.34,North,0,0.0,0.0,83,0.00,,,0.00,0.0,meteobridge,2013-12-12 05:50:00,
2013-12-12 00:54:00,4.5,0.5,30.34,North,0,0.0,0.0,83,0.00,,,0.00,0.0,meteobridge,2013-12-12 05:54:00,
2013-12-12 01:00:00,4.1,0.1,30.34,North,0,0.0,0.0,83,0.00,,,0.00,0.0,meteobridge,2013-12-12 06:00:00,
2013-12-12 01:05:00,3.9,0.0,30.33,North,0,0.0,0.0,83,0.00,,,0.00,0.0,meteobridge,2013-12-12 06:05:00,
2013-12-12 01:10:00,3.7,-0.2,30.34,North,0,0.0,0.0,83,0.00,,,0.00,0.0,meteobridge,2013-12-12 06:10:00,
2013-12-12 01:15:00,3.6,-0.2,30.34,North,0,0.0,0.0,84,0.00,,,0.00,0.0,meteobridge,2013-12-12 06:15:00,
2013-12-12 01:20:00,3.4,-0.4,30.33,North,0,0.0,0.0,84,0.00,,,0.00,0.0,meteobridge,2013-12-12 06:20:00,
2013-12-12 01:25:00,3.0,-0.8,30.33,North,0,0.0,0.0,84,0.00,,,0.00,0.0,meteobridge,2013-12-12 06:25:00,
2013-12-12 01:31:00,2.8,-0.9,30.33,North,0,0.0,0.0,84,0.00,,,0.00,0.0,meteobridge,2013-12-12 06:31:00,
2013-12-12 01:36:00,2.7,-1.1,30.33,North,0,0.0,0.0,84,0.00,,,0.00,0.0,meteobridge,2013-12-12 06:36:00,
2013-12-12 01:41:00,2.3,-1.1,30.33,North,0,0.0,0.0,85,0.00,,,0.00,0.0,meteobridge,2013-12-12 06:41:00,
2013-12-12 01:46:00,2.1,-1.1,30.33,North,0,0.0,0.0,86,0.00,,,0.00,0.0,meteobridge,2013-12-12 06:46:00,
2013-12-12 01:51:00,1.9,-1.3,30.34,North,0,0.0,0.0,86,0.00,,,0.00,0.0,meteobridge,2013-12-12 06:51:00,
2013-12-12 01:56:00,1.9,-1.3,30.34,North,0,0.0,0.0,86,0.00,,,0.00,0.0,meteobridge,2013-12-12 06:56:00,
2013-12-12 02:02:00,1.8,-1.5,30.34,North,0,0.0,0.0,86,0.00,,,0.00,0.0,meteobridge,2013-12-12 07:02:00,
2013-12-12 02:08:00,1.6,-1.3,30.35,North,0,0.0,0.0,87,0.00,,,0.00,0.0,meteobridge,2013-12-12 07:08:00,
2013-12-12 02:13:00,1.6,-1.3,30.35,North,0,0.0,0.0,87,0.00,,,0.00,0.0,meteobridge,2013-12-12 07:13:00,
2013-12-12 02:18:00,1.4,-1.5,30.36,North,0,0.0,0.0,87,0.00,,,0.00,0.0,meteobridge,2013-12-12 07:18:00,
2013-12-12 02:23:00,1.4,-1.3,30.37,North,0,0.0,0.0,88,0.00,,,0.00,0.0,meteobridge,2013-12-12 07:23:00,
2013-12-12 02:28:00,1.8,-0.4,30.37,North,0,0.0,0.0,90,0.00,,,0.00,0.0,meteobridge,2013-12-12 07:28:00,
2013-12-12 02:33:00,2.1,0.1,30.37,North,0,0.0,0.0,91,0.00,,,0.00,0.0,meteobridge,2013-12-12 07:33:00,
2013-12-12 02:38:00,2.8,1.0,30.36,North,0,0.0,0.0,92,0.00,,,0.00,0.0,meteobridge,2013-12-12 07:38:00,
2013-12-12 02:44:00,3.4,1.6,30.36,North,0,0.0,0.0,92,0.00,,,0.00,0.0,meteobridge,2013-12-12 07:44:00,
2013-12-12 02:49:00,3.9,1.9,30.36,North,0,0.0,0.0,91,0.00,,,0.00,0.0,meteobridge,2013-12-12 07:49:00,
2013-12-12 02:54:00,4.5,2.1,30.36,North,0,0.0,0.0,90,0.00,,,0.00,0.0,meteobridge,2013-12-12 07:54:00,
2013-12-12 02:59:00,4.8,2.5,30.36,North,0,0.0,0.0,90,0.00,,,0.00,0.0,meteobridge,2013-12-12 07:59:00,
2013-12-12 03:04:00,5.2,2.7,30.36,North,0,0.0,0.0,89,0.00,,,0.00,0.0,meteobridge,2013-12-12 08:04:00,
2013-12-12 03:09:00,5.4,2.8,30.36,North,0,0.0,0.0,89,0.00,,,0.00,0.0,meteobridge,2013-12-12 08:09:00,
2013-12-12 03:14:00,5.5,3.0,30.36,North,0,0.0,0.0,89,0.00,,,0.00,0.0,meteobridge,2013-12-12 08:14:00,
2013-12-12 03:19:00,5.7,3.2,30.36,North,0,0.0,0.0,89,0.00,,,0.00,0.0,meteobridge,2013-12-12 08:19:00,
2013-12-12 03:24:00,6.1,3.6,30.36,North,0,0.0,0.0,89,0.00,,,0.00,0.0,meteobridge,2013-12-12 08:24:00,
2013-12-12 03:30:00,6.3,3.7,30.35,North,0,0.0,0.0,89,0.00,,,0.00,0.0,meteobridge,2013-12-12 08:30:00,
2013-12-12 03:35:00,6.4,3.9,30.36,North,0,0.0,0.0,89,0.00,,,0.00,0.0,meteobridge,2013-12-12 08:35:00,
2013-12-12 03:40:00,6.6,3.7,30.35,North,0,0.0,0.0,88,0.00,,,0.00,0.0,meteobridge,2013-12-12 08:40:00,
2013-12-12 03:45:00,7.0,4.1,30.35,North,0,0.0,0.0,88,0.00,,,0.00,0.0,meteobridge,2013-12-12 08:45:00,
2013-12-12 03:50:00,7.2,4.3,30.35,North,0,0.0,0.0,88,0.00,,,0.00,0.0,meteobridge,2013-12-12 08:50:00,
2013-12-12 03:55:00,7.3,4.8,30.35,North,0,0.0,0.0,89,0.00,,,0.00,0.0,meteobridge,2013-12-12 08:55:00,
2013-12-12 04:00:00,7.7,5.2,30.34,North,0,0.0,0.0,89,0.00,,,0.00,0.0,meteobridge,2013-12-12 09:00:00,
2013-12-12 04:06:00,7.9,5.4,30.34,North,0,0.0,0.0,89,0.00,,,0.00,0.0,meteobridge,2013-12-12 09:06:00,
2013-12-12 04:11:00,8.1,5.5,30.34,North,0,0.0,0.0,89,0.00,,,0.00,0.0,meteobridge,2013-12-12 09:11:00,
2013-12-12 04:16:00,8.2,5.7,30.34,North,0,0.0,0.0,89,0.00,,,0.00,0.0,meteobridge,2013-12-12 09:16:00,
2013-12-12 04:21:00,8.4,5.9,30.34,North,0,0.0,0.0,89,0.00,,,0.00,0.0,meteobridge,2013-12-12 09:21:00,
2013-12-12 04:26:00,8.6,6.1,30.34,North,0,0.0,0.0,89,0.00,,,0.00,0.0,meteobridge,2013-12-12 09:26:00,
2013-12-12 04:32:00,8.8,6.3,30.34,North,0,0.0,0.0,89,0.00,,,0.00,0.0,meteobridge,2013-12-12 09:32:00,
2013-12-12 04:37:00,9.0,6.4,30.34,North,0,0.0,0.0,89,0.00,,,0.00,0.0,meteobridge,2013-12-12 09:37:00,
2013-12-12 04:42:00,9.0,6.4,30.34,North,0,0.0,0.0,89,0.00,,,0.00,0.0,meteobridge,2013-12-12 09:42:00,
2013-12-12 04:47:00,9.1,6.6,30.34,North,0,0.0,0.0,89,0.00,,,0.00,0.0,meteobridge,2013-12-12 09:47:00,
2013-12-12 04:52:00,9.3,7.0,30.34,North,0,0.0,0.0,90,0.00,,,0.00,0.0,meteobridge,2013-12-12 09:52:00,
2013-12-12 04:57:00,9.3,7.0,30.34,North,0,0.0,0.0,90,0.00,,,0.00,0.0,meteobridge,2013-12-12 09:57:00,
2013-12-12 05:02:00,9.5,7.0,30.34,North,0,0.0,0.0,89,0.00,,,0.00,0.0,meteobridge,2013-12-12 10:02:00,
2013-12-12 05:08:00,9.7,7.2,30.34,North,0,0.0,0.0,89,0.00,,,0.00,0.0,meteobridge,2013-12-12 10:08:00,
2013-12-12 05:13:00,9.7,7.2,30.34,North,0,0.0,0.0,89,0.00,,,0.00,0.0,meteobridge,2013-12-12 10:13:00,
2013-12-12 05:18:00,9.9,7.3,30.34,North,0,0.0,0.0,89,0.00,,,0.00,0.0,meteobridge,2013-12-12 10:18:00,
2013-12-12 05:23:00,10.0,7.5,30.34,North,0,0.0,0.0,89,0.00,,,0.00,0.0,meteobridge,2013-12-12 10:23:00,
2013-12-12 05:28:00,10.0,7.5,30.34,North,0,0.0,0.0,89,0.00,,,0.00,0.0,meteobridge,2013-12-12 10:28:00,
2013-12-12 05:33:00,10.2,7.7,30.34,North,0,0.0,0.0,89,0.00,,,0.00,0.0,meteobridge,2013-12-12 10:33:00,
2013-12-12 05:38:00,10.2,7.7,30.34,North,0,0.0,0.0,89,0.00,,,0.00,0.0,meteobridge,2013-12-12 10:38:00,
2013-12-12 05:43:00,10.2,7.7,30.34,North,0,0.0,0.0,89,0.00,,,0.00,0.0,meteobridge,2013-12-12 10:43:00,
2013-12-12 05:48:00,10.4,7.9,30.34,North,0,0.0,0.0,89,0.00,,,0.00,0.0,meteobridge,2013-12-12 10:48:00,
2013-12-12 05:53:00,10.4,7.9,30.34,North,0,0.0,0.0,89,0.00,,,0.00,0.0,meteobridge,2013-12-12 10:53:00,
2013-12-12 05:59:00,10.6,8.1,30.34,North,0,0.0,0.0,89,0.00,,,0.00,0.0,meteobridge,2013-12-12 10:59:00,
2013-12-12 06:04:00,10.6,8.1,30.34,North,0,0.0,0.0,89,0.00,,,0.00,0.0,meteobridge,2013-12-12 11:04:00,
2013-12-12 06:09:00,10.6,8.1,30.34,North,0,0.0,0.0,89,0.00,,,0.00,0.0,meteobridge,2013-12-12 11:09:00,
2013-12-12 06:14:00,10.6,7.7,30.33,North,0,0.0,0.0,88,0.00,,,0.00,0.0,meteobridge,2013-12-12 11:14:00,
2013-12-12 06:19:00,10.6,7.7,30.33,North,0,0.0,0.0,88,0.00,,,0.00,0.0,meteobridge,2013-12-12 11:19:00,
2013-12-12 06:24:00,10.6,7.7,30.33,North,0,0.0,0.0,88,0.00,,,0.00,0.0,meteobridge,2013-12-12 11:24:00,
2013-12-12 06:30:00,10.6,7.7,30.32,North,0,0.0,0.0,88,0.00,,,0.00,0.0,meteobridge,2013-12-12 11:30:00,
2013-12-12 06:35:00,10.4,7.5,30.32,North,0,0.0,0.0,88,0.00,,,0.00,0.0,meteobridge,2013-12-12 11:35:00,
2013-12-12 06:40:00,10.2,7.3,30.32,North,0,0.0,0.0,88,0.00,,,0.00,0.0,meteobridge,2013-12-12 11:40:00,
2013-12-12 06:45:00,10.0,7.0,30.32,North,0,0.0,0.0,87,0.00,,,0.00,0.0,meteobridge,2013-12-12 11:45:00,
2013-12-12 06:50:00,9.9,6.8,30.32,North,0,0.0,0.0,87,0.00,,,0.00,0.0,meteobridge,2013-12-12 11:50:00,
2013-12-12 06:55:00,9.7,6.6,30.32,North,0,0.0,0.0,87,0.00,,,0.00,0.0,meteobridge,2013-12-12 11:55:00,
2013-12-12 07:01:00,9.3,6.3,30.32,North,0,0.0,0.0,87,0.00,,,0.00,0.0,meteobridge,2013-12-12 12:01:00,
2013-12-12 07:06:00,9.0,5.9,30.32,North,0,0.0,0.0,87,0.00,,,0.00,0.0,meteobridge,2013-12-12 12:06:00,
2013-12-12 07:11:00,8.8,5.7,30.32,North,0,0.0,0.0,87,0.00,,,0.00,0.0,meteobridge,2013-12-12 12:11:00,
2013-12-12 07:16:00,8.4,5.4,30.32,North,0,0.0,0.0,87,0.00,,,0.00,0.0,meteobridge,2013-12-12 12:16:00,
2013-12-12 07:21:00,8.2,5.2,30.32,North,0,0.0,0.0,87,0.00,,,0.00,0.0,meteobridge,2013-12-12 12:21:00,
2013-12-12 07:26:00,8.1,5.0,30.32,North,0,0.0,0.0,87,0.00,,,0.00,0.0,meteobridge,2013-12-12 12:26:00,
2013-12-12 07:31:00,7.7,4.6,30.32,North,0,0.0,0.0,87,0.00,,,0.00,0.0,meteobridge,2013-12-12 12:31:00,
2013-12-12 07:37:00,7.5,4.5,30.32,North,0,0.0,0.0,87,0.00,,,0.00,0.0,meteobridge,2013-12-12 12:37:00,
2013-12-12 07:42:00,7.3,4.5,30.32,North,0,0.0,0.0,88,0.00,,,0.00,0.0,meteobridge,2013-12-12 12:42:00,
2013-12-12 07:47:00,7.2,4.3,30.32,North,0,0.0,0.0,88,0.00,,,0.00,0.0,meteobridge,2013-12-12 12:47:00,
2013-12-12 07:52:00,7.2,4.3,30.32,North,0,0.0,0.0,88,0.00,,,0.00,0.0,meteobridge,2013-12-12 12:52:00,
2013-12-12 07:57:00,7.2,4.6,30.32,North,0,0.0,0.0,89,0.00,,,0.00,0.0,meteobridge,2013-12-12 12:57:00,
2013-12-12 08:02:00,7.2,4.6,30.32,North,0,0.0,0.0,89,0.00,,,0.00,5.0,meteobridge,2013-12-12 13:02:00,
2013-12-12 08:08:00,7.2,4.6,30.33,North,0,0.0,0.0,89,0.00,,,0.00,7.0,meteobridge,2013-12-12 13:08:00,
2013-12-12 08:13:00,7.2,4.6,30.32,North,0,0.0,0.0,89,0.00,,,0.00,9.0,meteobridge,2013-12-12 13:13:00,
2013-12-12 08:18:00,7.3,4.8,30.32,North,0,0.0,0.0,89,0.00,,,0.00,16.0,meteobridge,2013-12-12 13:18:00,
2013-12-12 08:23:00,7.5,5.0,30.32,North,0,0.0,0.0,89,0.00,,,0.00,25.0,meteobridge,2013-12-12 13:23:00,
2013-12-12 08:28:00,7.7,5.2,30.32,North,0,0.0,0.0,89,0.00,,,0.00,25.0,meteobridge,2013-12-12 13:28:00,
2013-12-12 08:33:00,7.9,5.4,30.32,North,0,0.0,0.0,89,0.00,,,0.00,19.0,meteobridge,2013-12-12 13:33:00,
2013-12-12 08:38:00,8.2,5.4,30.32,North,0,0.0,0.0,88,0.00,,,0.00,23.0,meteobridge,2013-12-12 13:38:00,
2013-12-12 08:43:00,8.4,5.5,30.32,North,0,0.0,0.0,88,0.00,,,0.00,30.0,meteobridge,2013-12-12 13:43:00,
2013-12-12 08:49:00,8.8,5.7,30.32,North,0,0.0,0.0,87,0.00,,,0.00,19.0,meteobridge,2013-12-12 13:49:00,
2013-12-12 08:54:00,9.0,5.7,30.32,North,0,0.0,0.0,86,0.00,,,0.00,21.0,meteobridge,2013-12-12 13:54:00,
2013-12-12 08:59:00,9.1,5.5,30.32,North,0,0.0,0.0,85,0.00,,,0.00,21.0,meteobridge,2013-12-12 13:59:00,
2013-12-12 09:04:00,9.3,5.7,30.32,North,0,0.0,0.0,85,0.00,,,0.00,39.0,meteobridge,2013-12-12 14:04:00,
2013-12-12 09:09:00,9.5,5.9,30.32,North,0,0.0,0.0,85,0.00,,,0.00,32.0,meteobridge,2013-12-12 14:09:00,
2013-12-12 09:14:00,9.9,6.3,30.32,North,0,0.0,0.0,85,0.00,,,0.00,33.0,meteobridge,2013-12-12 14:14:00,
2013-12-12 09:19:00,9.9,6.1,30.32,North,0,0.0,0.0,84,0.00,,,0.00,35.0,meteobridge,2013-12-12 14:19:00,
2013-12-12 09:24:00,10.2,6.4,30.31,North,0,0.0,0.0,84,0.00,,,0.00,40.0,meteobridge,2013-12-12 14:24:00,
2013-12-12 09:29:00,10.2,6.1,30.31,North,0,0.0,0.0,83,0.00,,,0.00,37.0,meteobridge,2013-12-12 14:29:00,
2013-12-12 09:35:00,10.6,6.4,30.31,North,0,0.0,0.0,83,0.00,,,0.00,39.0,meteobridge,2013-12-12 14:35:00,
2013-12-12 09:40:00,10.6,6.3,30.30,North,0,0.0,0.0,82,0.00,,,0.00,69.0,meteobridge,2013-12-12 14:40:00,
2013-12-12 09:45:00,10.8,6.4,30.31,North,0,0.0,0.0,82,0.00,,,0.00,46.0,meteobridge,2013-12-12 14:45:00,
2013-12-12 09:50:00,10.9,6.3,30.31,North,0,0.0,0.0,81,0.00,,,0.00,39.0,meteobridge,2013-12-12 14:50:00,
2013-12-12 09:55:00,11.3,6.8,30.31,North,0,0.0,0.0,82,0.00,,,0.00,54.0,meteobridge,2013-12-12 14:55:00,
2013-12-12 10:00:00,11.7,7.0,30.31,North,0,0.0,0.0,81,0.00,,,0.00,79.0,meteobridge,2013-12-12 15:00:00,
2013-12-12 10:05:00,11.8,7.2,30.31,North,0,0.0,0.0,81,0.00,,,0.00,130.0,meteobridge,2013-12-12 15:05:00,
2013-12-12 10:10:00,12.2,7.2,30.31,North,0,0.0,0.0,80,0.00,,,0.00,90.0,meteobridge,2013-12-12 15:10:00,
2013-12-12 10:15:00,12.4,7.2,30.31,North,0,0.0,0.0,79,0.00,,,0.00,105.0,meteobridge,2013-12-12 15:15:00,
2013-12-12 10:20:00,12.6,7.3,30.30,North,0,0.0,0.0,79,0.00,,,0.00,109.0,meteobridge,2013-12-12 15:20:00,
2013-12-12 10:26:00,12.6,7.5,30.30,North,0,0.0,0.0,80,0.00,,,0.00,100.0,meteobridge,2013-12-12 15:26:00,
2013-12-12 10:31:00,12.7,7.2,30.30,North,0,0.0,0.0,78,0.00,,,0.00,114.0,meteobridge,2013-12-12 15:31:00,
2013-12-12 10:36:00,12.7,7.5,30.29,North,0,0.0,0.0,79,0.00,,,0.00,98.0,meteobridge,2013-12-12 15:36:00,
2013-12-12 10:41:00,12.6,7.0,30.29,North,0,0.0,0.0,78,0.00,,,0.00,88.0,meteobridge,2013-12-12 15:41:00,
2013-12-12 10:46:00,12.6,7.0,30.28,North,0,0.0,0.0,78,0.00,,,0.00,72.0,meteobridge,2013-12-12 15:46:00,
2013-12-12 10:51:00,12.6,7.3,30.28,North,0,0.0,0.0,79,0.00,,,0.00,93.0,meteobridge,2013-12-12 15:51:00,
2013-12-12 10:57:00,12.9,7.3,30.29,North,0,0.0,0.0,78,0.00,,,0.00,121.0,meteobridge,2013-12-12 15:57:00,
2013-12-12 11:02:00,13.1,7.5,30.29,North,0,0.0,0.0,78,0.00,,,0.00,163.0,meteobridge,2013-12-12 16:02:00,
2013-12-12 11:07:00,13.5,8.2,30.29,North,0,0.0,0.0,79,0.00,,,0.00,162.0,meteobridge,2013-12-12 16:07:00,
2013-12-12 11:12:00,13.8,8.2,30.29,North,0,0.0,0.0,78,0.00,,,0.00,148.0,meteobridge,2013-12-12 16:12:00,
2013-12-12 11:17:00,13.8,7.7,30.29,North,0,0.0,0.0,76,0.00,,,0.00,190.0,meteobridge,2013-12-12 16:17:00,
2013-12-12 11:22:00,14.2,8.6,30.28,North,0,0.0,0.0,78,0.00,,,0.00,190.0,meteobridge,2013-12-12 16:22:00,
2013-12-12 11:27:00,14.4,7.9,30.29,North,0,0.0,0.0,75,0.00,,,0.00,192.0,meteobridge,2013-12-12 16:27:00,
2013-12-12 11:32:00,14.5,8.4,30.27,North,0,0.0,0.0,76,0.00,,,0.00,204.0,meteobridge,2013-12-12 16:32:00,
2013-12-12 11:38:00,14.5,7.7,30.27,North,0,0.0,0.0,74,0.00,,,0.00,156.0,meteobridge,2013-12-12 16:38:00,
2013-12-12 11:43:00,14.5,7.7,30.26,North,0,0.0,0.0,74,0.00,,,0.00,172.0,meteobridge,2013-12-12 16:43:00,
2013-12-12 11:48:00,14.5,7.5,30.26,North,0,0.0,0.0,73,0.00,,,0.00,181.0,meteobridge,2013-12-12 16:48:00,
2013-12-12 11:53:00,14.5,8.4,30.26,North,0,0.0,0.0,76,0.00,,,0.00,199.0,meteobridge,2013-12-12 16:53:00,
2013-12-12 11:58:00,14.9,8.4,30.25,North,0,0.0,0.0,75,0.00,,,0.00,179.0,meteobridge,2013-12-12 16:58:00,
2013-12-12 12:03:00,14.9,7.9,30.25,North,0,0.0,0.0,73,0.00,,,0.00,181.0,meteobridge,2013-12-12 17:03:00,
2013-12-12 12:08:00,14.7,7.3,30.25,North,0,0.0,0.0,72,0.00,,,0.00,174.0,meteobridge,2013-12-12 17:08:00,
2013-12-12 12:13:00,14.4,6.6,30.24,North,0,0.0,0.0,71,0.00,,,0.00,174.0,meteobridge,2013-12-12 17:13:00,
2013-12-12 12:18:00,14.2,6.4,30.24,North,0,0.0,0.0,71,0.00,,,0.00,179.0,meteobridge,2013-12-12 17:18:00,
2013-12-12 12:23:00,14.0,6.3,30.23,North,0,0.0,0.0,71,0.00,,,0.00,174.0,meteobridge,2013-12-12 17:23:00,
2013-12-12 12:28:00,14.2,6.3,30.23,North,0,0.0,0.0,70,0.00,,,0.00,171.0,meteobridge,2013-12-12 17:28:00,
2013-12-12 12:33:00,14.2,6.8,30.23,North,0,0.0,0.0,72,0.00,,,0.00,181.0,meteobridge,2013-12-12 17:33:00,
2013-12-12 12:39:00,14.4,6.4,30.23,North,0,0.0,0.0,70,0.00,,,0.00,172.0,meteobridge,2013-12-12 17:39:00,
2013-12-12 12:44:00,14.2,5.9,30.22,North,0,0.0,0.0,69,0.00,,,0.00,179.0,meteobridge,2013-12-12 17:44:00,
2013-12-12 12:49:00,14.2,5.9,30.22,North,0,0.0,0.0,69,0.00,,,0.00,192.0,meteobridge,2013-12-12 17:49:00,
2013-12-12 12:54:00,14.4,5.7,30.22,North,0,0.0,0.0,68,0.00,,,0.00,193.0,meteobridge,2013-12-12 17:54:00,
2013-12-12 12:59:00,14.4,5.4,30.21,North,0,0.0,0.0,67,0.00,,,0.00,188.0,meteobridge,2013-12-12 17:59:00,
2013-12-12 13:04:00,14.4,4.5,30.21,North,0,0.0,0.0,64,0.00,,,0.00,169.0,meteobridge,2013-12-12 18:04:00,
2013-12-12 13:10:00,14.5,5.0,30.20,North,0,0.0,0.0,65,0.00,,,0.00,190.0,meteobridge,2013-12-12 18:10:00,
2013-12-12 13:15:00,14.5,4.3,30.21,North,0,0.0,0.0,63,0.00,,,0.00,169.0,meteobridge,2013-12-12 18:15:00,
2013-12-12 13:20:00,14.5,3.9,30.21,North,0,0.0,0.0,62,0.00,,,0.00,171.0,meteobridge,2013-12-12 18:20:00,
2013-12-12 13:25:00,15.1,5.2,30.20,North,0,0.0,0.0,64,0.00,,,0.00,172.0,meteobridge,2013-12-12 18:25:00,
2013-12-12 13:30:00,15.1,3.0,30.20,North,0,0.0,0.0,58,0.00,,,0.00,178.0,meteobridge,2013-12-12 18:30:00,
2013-12-12 13:35:00,15.3,3.9,30.20,North,0,0.0,0.0,60,0.00,,,0.00,165.0,meteobridge,2013-12-12 18:35:00,
2013-12-12 13:40:00,15.4,2.8,30.19,North,0,0.0,0.0,57,0.00,,,0.00,216.0,meteobridge,2013-12-12 18:40:00,
2013-12-12 13:45:00,15.6,3.6,30.19,North,0,0.0,0.0,58,0.00,,,0.00,186.0,meteobridge,2013-12-12 18:45:00,
2013-12-12 13:50:00,16.0,3.0,30.19,North,0,0.0,0.0,56,0.00,,,0.00,207.0,meteobridge,2013-12-12 18:50:00,
2013-12-12 13:56:00,16.2,3.2,30.19,North,0,0.0,0.0,56,0.00,,,0.00,271.0,meteobridge,2013-12-12 18:56:00,
2013-12-12 14:01:00,16.2,3.6,30.19,North,0,0.0,0.0,57,0.00,,,0.00,244.0,meteobridge,2013-12-12 19:01:00,
2013-12-12 14:06:00,16.2,3.6,30.19,North,0,0.0,0.0,57,0.00,,,0.00,281.0,meteobridge,2013-12-12 19:06:00,
2013-12-12 14:11:00,15.8,3.6,30.19,North,0,0.0,0.0,58,0.00,,,0.00,230.0,meteobridge,2013-12-12 19:11:00,
2013-12-12 14:16:00,15.6,3.6,30.19,North,0,0.0,0.0,58,0.00,,,0.00,109.0,meteobridge,2013-12-12 19:16:00,
2013-12-12 14:21:00,15.6,2.7,30.18,North,0,0.0,0.0,56,0.00,,,0.00,178.0,meteobridge,2013-12-12 19:21:00,
2013-12-12 14:26:00,16.0,3.0,30.18,North,0,0.0,0.0,56,0.00,,,0.00,88.0,meteobridge,2013-12-12 19:26:00,
2013-12-12 14:32:00,16.2,3.9,30.18,North,0,0.0,0.0,58,0.00,,,0.00,93.0,meteobridge,2013-12-12 19:32:00,
2013-12-12 14:37:00,16.5,2.3,30.18,North,0,0.0,0.0,53,0.00,,,0.00,172.0,meteobridge,2013-12-12 19:37:00,
2013-12-12 14:42:00,16.9,3.6,30.18,North,0,0.0,0.0,55,0.00,,,0.00,176.0,meteobridge,2013-12-12 19:42:00,
2013-12-12 14:47:00,17.1,1.6,30.17,North,0,0.0,0.0,50,0.00,,,0.00,162.0,meteobridge,2013-12-12 19:47:00,
2013-12-12 14:52:00,17.4,2.3,30.17,North,0,0.0,0.0,51,0.00,,,0.00,142.0,meteobridge,2013-12-12 19:52:00,
2013-12-12 14:58:00,17.6,2.5,30.17,North,0,0.0,0.0,51,0.00,,,0.00,123.0,meteobridge,2013-12-12 19:58:00,
2013-12-12 15:03:00,17.8,3.6,30.17,North,0,0.0,0.0,53,0.00,,,0.00,72.0,meteobridge,2013-12-12 20:03:00,
2013-12-12 15:08:00,17.8,3.2,30.16,North,0,0.0,0.0,52,0.00,,,0.00,32.0,meteobridge,2013-12-12 20:08:00,
2013-12-12 15:13:00,17.8,3.6,30.16,North,0,0.0,0.0,53,0.00,,,0.00,42.0,meteobridge,2013-12-12 20:13:00,
2013-12-12 15:19:00,17.6,3.0,30.17,North,0,0.0,0.0,52,0.00,,,0.00,60.0,meteobridge,2013-12-12 20:19:00,
2013-12-12 15:24:00,17.8,3.9,30.17,North,0,0.0,0.0,54,0.00,,,0.00,84.0,meteobridge,2013-12-12 20:24:00,
2013-12-12 15:29:00,17.8,3.6,30.17,North,0,0.0,0.0,53,0.00,,,0.00,67.0,meteobridge,2013-12-12 20:29:00,
2013-12-12 15:34:00,18.0,4.5,30.17,North,0,0.0,0.0,55,0.00,,,0.00,65.0,meteobridge,2013-12-12 20:34:00,
2013-12-12 15:39:00,17.8,5.2,30.17,North,0,0.0,0.0,57,0.00,,,0.00,81.0,meteobridge,2013-12-12 20:39:00,
2013-12-12 15:44:00,17.8,5.9,30.17,North,0,0.0,0.0,59,0.00,,,0.00,70.0,meteobridge,2013-12-12 20:44:00,
2013-12-12 15:49:00,17.6,5.4,30.17,North,0,0.0,0.0,58,0.00,,,0.00,83.0,meteobridge,2013-12-12 20:49:00,
2013-12-12 15:55:00,17.4,5.5,30.18,North,0,0.0,0.0,59,0.00,,,0.00,47.0,meteobridge,2013-12-12 20:55:00,
2013-12-12 16:00:00,17.2,5.0,30.17,North,0,0.0,0.0,58,0.00,,,0.00,37.0,meteobridge,2013-12-12 21:00:00,
2013-12-12 16:05:00,17.2,5.4,30.17,North,0,0.0,0.0,59,0.00,,,0.00,21.0,meteobridge,2013-12-12 21:05:00,
2013-12-12 16:10:00,17.1,5.9,30.17,North,0,0.0,0.0,61,0.00,,,0.00,14.0,meteobridge,2013-12-12 21:10:00,
2013-12-12 16:15:00,16.9,5.0,30.17,North,0,0.0,0.0,59,0.00,,,0.00,16.0,meteobridge,2013-12-12 21:15:00,
2013-12-12 16:20:00,16.5,4.6,30.16,North,0,0.0,0.0,59,0.00,,,0.00,11.0,meteobridge,2013-12-12 21:20:00,
2013-12-12 16:26:00,16.3,5.2,30.17,North,0,0.0,0.0,61,0.00,,,0.00,11.0,meteobridge,2013-12-12 21:26:00,
2013-12-12 16:27:00,16.3,5.5,30.17,North,0,0.0,0.0,62,0.00,,,0.00,11.0,meteobridge,2013-12-12 21:27:00,
2013-12-12 16:32:00,16.2,5.0,30.16,North,0,0.0,0.0,61,0.00,,,0.00,16.0,meteobridge,2013-12-12 21:32:00,
2013-12-12 16:37:00,16.0,5.2,30.17,North,0,0.0,0.0,62,0.00,,,0.00,11.0,meteobridge,2013-12-12 21:37:00,
2013-12-12 16:42:00,15.8,5.2,30.17,North,0,0.0,0.0,62,0.00,,,0.00,9.0,meteobridge,2013-12-12 21:42:00,
2013-12-12 16:47:00,15.4,5.2,30.17,North,0,0.0,0.0,63,0.00,,,0.00,7.0,meteobridge,2013-12-12 21:47:00,
2013-12-12 16:52:00,15.3,4.6,30.17,North,0,0.0,0.0,62,0.00,,,0.00,5.0,meteobridge,2013-12-12 21:52:00,
2013-12-12 16:57:00,15.1,4.8,30.17,North,0,0.0,0.0,63,0.00,,,0.00,5.0,meteobridge,2013-12-12 21:57:00,
2013-12-12 17:03:00,14.9,5.0,30.17,North,0,0.0,0.0,64,0.00,,,0.00,0.0,meteobridge,2013-12-12 22:03:00,
2013-12-12 17:08:00,14.7,5.2,30.17,North,0,0.0,0.0,65,0.00,,,0.00,0.0,meteobridge,2013-12-12 22:08:00,
2013-12-12 17:13:00,14.5,4.6,30.17,North,0,0.0,0.0,64,0.00,,,0.00,0.0,meteobridge,2013-12-12 22:13:00,
2013-12-12 17:18:00,14.4,4.5,30.17,North,0,0.0,0.0,64,0.00,,,0.00,0.0,meteobridge,2013-12-12 22:18:00,
2013-12-12 17:23:00,14.4,4.8,30.17,North,0,0.0,0.0,65,0.00,,,0.00,0.0,meteobridge,2013-12-12 22:23:00,
2013-12-12 17:28:00,14.2,4.6,30.17,North,0,0.0,0.0,65,0.00,,,0.00,0.0,meteobridge,2013-12-12 22:28:00,
2013-12-12 17:34:00,14.0,4.8,30.17,North,0,0.0,0.0,66,0.00,,,0.00,0.0,meteobridge,2013-12-12 22:34:00,
2013-12-12 17:39:00,13.8,4.6,30.17,North,0,0.0,0.0,66,0.00,,,0.00,0.0,meteobridge,2013-12-12 22:39:00,
2013-12-12 17:44:00,13.8,4.6,30.16,North,0,0.0,0.0,66,0.00,,,0.00,0.0,meteobridge,2013-12-12 22:44:00,
2013-12-12 17:49:00,13.6,4.6,30.16,North,0,0.0,0.0,67,0.00,,,0.00,0.0,meteobridge,2013-12-12 22:49:00,
2013-12-12 17:54:00,13.6,4.6,30.17,North,0,0.0,0.0,67,0.00,,,0.00,0.0,meteobridge,2013-12-12 22:54:00,
2013-12-12 17:59:00,13.6,4.6,30.16,North,0,0.0,0.0,67,0.00,,,0.00,0.0,meteobridge,2013-12-12 22:59:00,
2013-12-12 18:04:00,13.6,5.0,30.16,North,0,0.0,0.0,68,0.00,,,0.00,0.0,meteobridge,2013-12-12 23:04:00,
2013-12-12 18:10:00,13.6,5.0,30.16,North,0,0.0,0.0,68,0.00,,,0.00,0.0,meteobridge,2013-12-12 23:10:00,
2013-12-12 18:15:00,13.5,4.8,30.15,North,0,0.0,0.0,68,0.00,,,0.00,0.0,meteobridge,2013-12-12 23:15:00,
2013-12-12 18:20:00,13.5,4.8,30.15,North,0,0.0,0.0,68,0.00,,,0.00,0.0,meteobridge,2013-12-12 23:20:00,
2013-12-12 18:25:00,13.5,4.8,30.15,North,0,0.0,0.0,68,0.00,,,0.00,0.0,meteobridge,2013-12-12 23:25:00,
2013-12-12 18:30:00,13.5,4.8,30.15,North,0,0.0,0.0,68,0.00,,,0.00,0.0,meteobridge,2013-12-12 23:30:00,
2013-12-12 18:36:00,13.6,5.4,30.15,North,0,0.0,0.0,69,0.00,,,0.00,0.0,meteobridge,2013-12-12 23:36:00,
2013-12-12 18:41:00,13.6,5.4,30.15,North,0,0.0,0.0,69,0.00,,,0.00,0.0,meteobridge,2013-12-12 23:41:00,
2013-12-12 18:46:00,13.6,5.0,30.15,North,0,0.0,0.0,68,0.00,,,0.00,0.0,meteobridge,2013-12-12 23:46:00,
2013-12-12 18:51:00,13.6,5.0,30.15,North,0,0.0,0.0,68,0.00,,,0.00,0.0,meteobridge,2013-12-12 23:51:00,
2013-12-12 18:56:00,13.6,5.0,30.15,North,0,0.0,0.0,68,0.00,,,0.00,0.0,meteobridge,2013-12-12 23:56:00,
2013-12-12 19:01:00,13.6,5.4,30.15,North,0,0.0,0.0,69,0.00,,,0.00,0.0,meteobridge,2013-12-13 00:01:00,
2013-12-12 19:06:00,13.6,5.0,30.15,North,0,0.0,0.0,68,0.00,,,0.00,0.0,meteobridge,2013-12-13 00:06:00,
2013-12-12 19:12:00,13.6,5.4,30.15,North,0,0.0,0.0,69,0.00,,,0.00,0.0,meteobridge,2013-12-13 00:12:00,
2013-12-12 19:17:00,13.6,5.4,30.15,North,0,0.0,0.0,69,0.00,,,0.00,0.0,meteobridge,2013-12-13 00:17:00,
2013-12-12 19:22:00,13.6,5.7,30.15,North,0,0.0,0.0,70,0.00,,,0.00,0.0,meteobridge,2013-12-13 00:22:00,
2013-12-12 19:27:00,13.6,5.7,30.15,North,0,0.0,0.0,70,0.00,,,0.00,0.0,meteobridge,2013-12-13 00:27:00,
2013-12-12 19:32:00,13.6,5.7,30.15,North,0,0.0,0.0,70,0.00,,,0.00,0.0,meteobridge,2013-12-13 00:32:00,
2013-12-12 19:37:00,13.6,6.1,30.15,North,0,0.0,0.0,71,0.00,,,0.00,0.0,meteobridge,2013-12-13 00:37:00,
2013-12-12 19:42:00,13.6,6.1,30.15,North,0,0.0,0.0,71,0.00,,,0.00,0.0,meteobridge,2013-12-13 00:42:00,
2013-12-12 19:47:00,13.8,6.4,30.15,North,0,0.0,0.0,72,0.00,,,0.00,0.0,meteobridge,2013-12-13 00:47:00,
2013-12-12 19:52:00,14.0,6.6,30.15,North,0,0.0,0.0,72,0.00,,,0.00,0.0,meteobridge,2013-12-13 00:52:00,
2013-12-12 19:57:00,14.2,6.8,30.15,North,0,0.0,0.0,72,0.00,,,0.00,0.0,meteobridge,2013-12-13 00:57:00,
2013-12-12 20:03:00,14.4,7.3,30.15,North,0,0.0,0.0,73,0.00,,,0.00,0.0,meteobridge,2013-12-13 01:03:00,
2013-12-12 20:08:00,14.7,7.9,30.15,North,0,0.0,0.0,74,0.00,,,0.00,0.0,meteobridge,2013-12-13 01:08:00,
2013-12-12 20:13:00,14.9,8.1,30.15,North,0,0.0,0.0,74,0.00,,,0.00,0.0,meteobridge,2013-12-13 01:13:00,
2013-12-12 20:18:00,15.1,8.6,30.15,North,0,0.0,0.0,75,0.00,,,0.00,0.0,meteobridge,2013-12-13 01:18:00,
2013-12-12 20:23:00,15.4,8.6,30.15,North,0,0.0,0.0,74,0.00,,,0.00,0.0,meteobridge,2013-12-13 01:23:00,
2013-12-12 20:28:00,15.6,9.5,30.14,North,0,0.0,0.0,76,0.00,,,0.00,0.0,meteobridge,2013-12-13 01:28:00,
2013-12-12 20:33:00,16.0,9.5,30.14,North,0,0.0,0.0,75,0.00,,,0.00,0.0,meteobridge,2013-12-13 01:33:00,
2013-12-12 20:38:00,16.2,9.7,30.14,North,0,0.0,0.0,75,0.00,,,0.00,0.0,meteobridge,2013-12-13 01:38:00,
2013-12-12 20:43:00,16.3,9.9,30.14,North,0,0.0,0.0,75,0.00,,,0.00,0.0,meteobridge,2013-12-13 01:43:00,
2013-12-12 20:49:00,16.3,10.0,30.14,North,0,0.0,0.0,76,0.00,,,0.00,0.0,meteobridge,2013-12-13 01:49:00,
2013-12-12 20:54:00,16.5,10.2,30.14,North,0,0.0,0.0,76,0.00,,,0.00,0.0,meteobridge,2013-12-13 01:54:00,
2013-12-12 20:59:00,16.7,10.4,30.14,North,0,0.0,0.0,76,0.00,,,0.00,0.0,meteobridge,2013-12-13 01:59:00,
2013-12-12 21:04:00,16.9,10.6,30.14,North,0,0.0,0.0,76,0.00,,,0.00,0.0,meteobridge,2013-12-13 02:04:00,
2013-12-12 21:09:00,16.9,10.6,30.14,North,0,0.0,0.0,76,0.00,,,0.00,0.0,meteobridge,2013-12-13 02:09:00,
2013-12-12 21:14:00,17.1,10.8,30.14,North,0,0.0,0.0,76,0.00,,,0.00,0.0,meteobridge,2013-12-13 02:14:00,
2013-12-12 21:19:00,17.1,10.8,30.14,North,0,0.0,0.0,76,0.00,,,0.00,0.0,meteobridge,2013-12-13 02:19:00,
2013-12-12 21:25:00,17.1,11.1,30.14,North,0,0.0,0.0,77,0.00,,,0.00,0.0,meteobridge,2013-12-13 02:25:00,
2013-12-12 21:30:00,17.2,11.3,30.13,North,0,0.0,0.0,77,0.00,,,0.00,0.0,meteobridge,2013-12-13 02:30:00,
2013-12-12 21:35:00,17.2,11.3,30.13,North,0,0.0,0.0,77,0.00,,,0.00,0.0,meteobridge,2013-12-13 02:35:00,
2013-12-12 21:40:00,17.2,11.5,30.13,North,0,0.0,0.0,78,0.00,,,0.00,0.0,meteobridge,2013-12-13 02:40:00,
2013-12-12 21:45:00,17.4,11.7,30.13,North,0,0.0,0.0,78,0.00,,,0.00,0.0,meteobridge,2013-12-13 02:45:00,
2013-12-12 21:50:00,17.4,11.7,30.12,North,0,0.0,0.0,78,0.00,,,0.00,0.0,meteobridge,2013-12-13 02:50:00,
2013-12-12 21:56:00,17.6,11.8,30.12,North,0,0.0,0.0,78,0.00,,,0.00,0.0,meteobridge,2013-12-13 02:56:00,
2013-12-12 22:01:00,17.8,12.4,30.12,North,0,0.0,0.0,79,0.00,,,0.00,0.0,meteobridge,2013-12-13 03:01:00,
2013-12-12 22:06:00,17.8,12.4,30.12,North,0,0.0,0.0,79,0.00,,,0.00,0.0,meteobridge,2013-12-13 03:06:00,
2013-12-12 22:11:00,18.0,12.6,30.12,North,0,0.0,0.0,79,0.00,,,0.00,0.0,meteobridge,2013-12-13 03:11:00,
2013-12-12 22:16:00,18.0,12.6,30.11,North,0,0.0,0.0,79,0.00,,,0.00,0.0,meteobridge,2013-12-13 03:16:00,
2013-12-12 22:21:00,18.1,13.1,30.12,North,0,0.0,0.0,80,0.00,,,0.00,0.0,meteobridge,2013-12-13 03:21:00,
2013-12-12 22:27:00,18.3,13.3,30.12,North,0,0.0,0.0,80,0.00,,,0.00,0.0,meteobridge,2013-12-13 03:27:00,
2013-12-12 22:32:00,18.3,13.3,30.12,North,0,0.0,0.0,80,0.00,,,0.00,0.0,meteobridge,2013-12-13 03:32:00,
2013-12-12 22:37:00,18.7,13.5,30.12,North,0,0.0,0.0,80,0.00,,,0.00,0.0,meteobridge,2013-12-13 03:37:00,
2013-12-12 22:42:00,18.9,13.6,30.11,North,0,0.0,0.0,80,0.00,,,0.00,0.0,meteobridge,2013-12-13 03:42:00,
2013-12-12 22:47:00,18.9,14.0,30.11,North,0,0.0,0.0,81,0.00,,,0.00,0.0,meteobridge,2013-12-13 03:47:00,
2013-12-12 22:52:00,19.0,14.2,30.11,North,0,0.0,0.0,81,0.00,,,0.00,0.0,meteobridge,2013-12-13 03:52:00,
2013-12-12 22:57:00,19.2,14.4,30.11,North,0,0.0,0.0,81,0.00,,,0.00,0.0,meteobridge,2013-12-13 03:57:00,
2013-12-12 23:02:00,19.2,14.4,30.11,North,0,0.0,0.0,81,0.00,,,0.00,0.0,meteobridge,2013-12-13 04:02:00,
2013-12-12 23:07:00,19.4,14.5,30.11,North,0,0.0,0.0,81,0.00,,,0.00,0.0,meteobridge,2013-12-13 04:07:00,
2013-12-12 23:12:00,19.4,14.5,30.10,North,0,0.0,0.0,81,0.00,,,0.00,0.0,meteobridge,2013-12-13 04:12:00,
2013-12-12 23:17:00,19.6,14.7,30.10,North,0,0.0,0.0,81,0.00,,,0.00,0.0,meteobridge,2013-12-13 04:17:00,
2013-12-12 23:22:00,19.6,14.7,30.10,North,0,0.0,0.0,81,0.00,,,0.00,0.0,meteobridge,2013-12-13 04:22:00,
2013-12-12 23:28:00,19.6,14.7,30.09,North,0,0.0,0.0,81,0.00,,,0.00,0.0,meteobridge,2013-12-13 04:28:00,
2013-12-12 23:33:00,19.8,14.9,30.10,North,0,0.0,0.0,81,0.00,,,0.00,0.0,meteobridge,2013-12-13 04:33:00,
2013-12-12 23:38:00,19.8,15.1,30.10,North,0,0.0,0.0,82,0.00,,,0.00,0.0,meteobridge,2013-12-13 04:38:00,
2013-12-12 23:43:00,19.8,14.9,30.10,North,0,0.0,0.0,81,0.00,,,0.00,0.0,meteobridge,2013-12-13 04:43:00,
2013-12-12 23:48:00,19.9,15.3,30.10,North,0,0.0,0.0,82,0.00,,,0.00,0.0,meteobridge,2013-12-13 04:48:00,
2013-12-12 23:53:00,19.9,15.3,30.09,North,0,0.0,0.0,82,0.00,,,0.00,0.0,meteobridge,2013-12-13 04:53:00,
2013-12-12 23:58:00,20.1,15.4,30.10,North,0,0.0,0.0,82,0.00,,,0.00,0.0,meteobridge,2013-12-13 04:58:00,